This is the latest recevied weather packets stored in our database for station/object N9NDF. If no packets are shown the sender has not sent any weather packets the latest 1 day(s).
| Time | Temp. | Humidity | Pressure | Rain* | Wind** | Luminosity | Snow |
|---|---|---|---|---|---|---|---|
| 1777990462 | 8.89° C | 78% | 987.9 hPa | 0 mm | 0.89 m/s, 349° | 157 W/m² | - |
| 1777990347 | 8.89° C | 78% | 987.8 hPa | 0 mm | 0.89 m/s, 340° | 154 W/m² | - |
| 1777990287 | 8.89° C | 78% | 987.8 hPa | 0 mm | 0.89 m/s, 356° | 147 W/m² | - |
| 1777990229 | 8.89° C | 79% | 987.8 hPa | 0 mm | 0.89 m/s, 336° | 137 W/m² | - |
| 1777990167 | 8.89° C | 78% | 987.8 hPa | 0 mm | 0.89 m/s, 345° | 132 W/m² | - |
| 1777990107 | 8.89° C | 78% | 987.8 hPa | 0 mm | 0.45 m/s, 344° | 133 W/m² | - |
| 1777990048 | 8.89° C | 78% | 987.7 hPa | 0 mm | 0.45 m/s, 314° | 135 W/m² | - |
| 1777989987 | 8.89° C | 78% | 987.7 hPa | 0 mm | 0.89 m/s, 336° | 140 W/m² | - |
| 1777989928 | 8.89° C | 78% | 987.6 hPa | 0 mm | 0.45 m/s, 342° | 141 W/m² | - |
| 1777989854 | 8.89° C | 80% | 987.5 hPa | 0 mm | 0.45 m/s, 334° | 136 W/m² | - |
| 1777989794 | 8.89° C | 80% | 987.6 hPa | 0 mm | 0.45 m/s, 341° | 126 W/m² | - |
| 1777989719 | 8.33° C | 80% | 987.6 hPa | 0 mm | 0.45 m/s, 357° | 119 W/m² | - |
| 1777989672 | 8.33° C | 79% | 987.6 hPa | 0 mm | 0.45 m/s, 0° | 120 W/m² | - |
| 1777989598 | 8.33° C | 79% | 987.6 hPa | 0 mm | 0.45 m/s, 339° | 121 W/m² | - |
| 1777989539 | 8.33° C | 78% | 987.6 hPa | 0 mm | 0.45 m/s, 348° | 115 W/m² | - |
| 1777989469 | 8.33° C | 79% | 987.6 hPa | 0 mm | 0.45 m/s, 358° | 105 W/m² | - |
| 1777989404 | 8.33° C | 79% | 987.6 hPa | 0 mm | 0.45 m/s, 0° | 98 W/m² | - |
| 1777989344 | 8.33° C | 79% | 987.7 hPa | 0 mm | 0.45 m/s, 1° | 95 W/m² | - |
| 1777989284 | 8.33° C | 78% | 987.7 hPa | 0 mm | 0.45 m/s, 330° | 95 W/m² | - |
| 1777989224 | 8.33° C | 78% | 987.7 hPa | 0 mm | 0.45 m/s, 5° | 94 W/m² | - |
| 1777989153 | 8.33° C | 78% | 987.7 hPa | 0 mm | 0.45 m/s, 340° | 92 W/m² | - |
| 1777989090 | 8.33° C | 78% | 987.8 hPa | 0 mm | 0.45 m/s, 322° | 88 W/m² | - |
| 1777989033 | 8.33° C | 79% | 987.9 hPa | 0 mm | 0.45 m/s, 342° | 81 W/m² | - |
| 1777988970 | 8.33° C | 79% | 987.9 hPa | 0 mm | 0.45 m/s, 320° | 76 W/m² | - |
| 1777988909 | 8.33° C | 80% | 987.9 hPa | 0 mm | 0.45 m/s, 324° | 72 W/m² | - |
* Rain latest hour (hover to see other rain measurements)
** Current wind speed in m/s (hover to see current wind gust speed)